This demonstration page uses our WeatherBlox Daily Observations layout. Learn more.

Left ArrowRight Arrow

38.88101, -77.10428

Hourly Observations for May 25, 2016

Temp ( °F °C ) Dew Point ( °F °C ) Humidity (%) Winds ( mph kmh ) Pressure ( in mb ) Visibility ( mi km ) Precip ( " mm )
12:52 am 00:52 Mostly Clear 65 18.3 57 13.9 76 76 S 7 11 30.07 1018 10 16 N/A
1:52 am 01:52 Clear 63 17.2 57 13.9 81 81 S 7 11 30.07 1018 10 16 N/A
2:52 am 02:52 Clear 63 17.2 57 13.9 81 81 S 6 9 30.09 1019 10 16 N/A
3:52 am 03:52 Clear 61 16.1 58 14.4 90 90 S 5 7 30.09 1019 10 16 N/A
4:52 am 04:52 Clear 61 16.1 57 13.9 87 87 N N/A 30.09 1019 10 16 N/A
5:52 am 05:52 Mostly Sunny 62 16.7 58 14.4 86 86 N N/A 30.11 1020 10 16 N/A
6:52 am 06:52 Partly Cloudy 62 16.7 59 15 90 90 S 3 6 30.14 1021 10 16 N/A
7:52 am 07:52 Partly Cloudy 66 18.9 59 15 78 78 N N/A 30.15 1021 10 16 N/A
8:52 am 08:52 Partly Cloudy 69 20.6 59 15 70 70 ESE 3 6 30.16 1022 10 16 N/A
9:52 am 09:52 Mostly Cloudy 74 23.3 57 13.9 56 56 N N/A 30.16 1021 10 16 N/A
10:52 am 10:52 Cloudy 78 25.6 58 14.4 50 50 N N/A 30.15 1021 10 16 N/A
11:52 am 11:52 Cloudy 83 28.3 54 12.2 37 37 E 3 6 30.15 1021 10 16 N/A
12:52 pm 12:52 Cloudy 84 28.9 52 11.1 33 33 VRB 3 6 30.15 1021 10 16 N/A
1:52 pm 13:52 Mostly Cloudy 85 29.4 52 11.1 32 32 W 8 13 30.14 1021 10 16 N/A
2:52 pm 14:52 Mostly Cloudy 85 29.4 54 12.2 35 35 W 7 11 30.13 1020 10 16 N/A
3:52 pm 15:52 Mostly Cloudy 85 29.4 54 12.2 35 35 SSW 8 13 30.11 1020 10 16 N/A
4:52 pm 16:52 Mostly Cloudy 86 30 51 10.6 30 30 WSW 6 9 30.11 1020 10 16 N/A
5:52 pm 17:52 Mostly Cloudy 85 29.4 53 11.7 33 33 VRB 6 9 30.10 1019 10 16 N/A
6:52 pm 18:52 Mostly Cloudy 84 28.9 51 10.6 32 32 WSW 9 15 30.09 1019 10 16 N/A
7:52 pm 19:52 Mostly Cloudy 78 25.6 56 13.3 47 47 S 8 13 30.10 1019 10 16 N/A
8:52 pm 20:52 Mostly Cloudy 74 23.3 57 13.9 56 56 S 8 13 30.11 1020 10 16 N/A
9:52 pm 21:52 Partly Cloudy 69 20.6 61 16.1 76 76 S 7 11 30.12 1020 10 16 N/A
10:52 pm 22:52 Mostly Clear 68 20 62 16.7 81 81 S 7 11 30.12 1020 10 16 N/A
11:52 pm 23:52 Partly Cloudy 67 19.4 61 16.1 81 81 S 6 9 30.12 1020 10 16 N/A

Powered by AerisWeather